STARLINK-34645

Last updated on Sat Jul 19 2025 00:02:09 GMT+0000 (Coordinated Universal Time)

1 64766U 25147M 25199.58335648 -.01541583 00000+0 -10606-1 0 9998 2 64766 53.1570 256.8482 0000804 85.1991 332.5397 15.77012675 2816
UTC large
Height (km)
Speed (km/s)
/
Latitude / Longitude
Inclination (degrees)
Orbital Period (minutes)
Azimuth
Elevation
Range (km)
Doppler Factor

Next 0 passes for location: London (51.5072 / 0.1276)

Sorry there are no passes over London.